Salisbury, MD

9:41 AM EST on December 08, 2016 (GMT -0500)
Salisbury-Ocean City Wicomico Regional

Weather History for KSBY - September, 2013

Change the Weather History Date:

Wednesday, September 4, 2013

  Actual Average Record
Temperature  
Mean Temperature 73 °F 72 °F  
Max Temperature 83 °F 82 °F 95 °F (1944)
Min Temperature 63 °F 62 °F 48 °F (1920)
Degree Days  
Heating Degree Days 0 0  
Month to date heating degree days 0 0  
Since 1 July heating degree days 0 2  
Cooling Degree Days 8 7  
Month to date cooling degree days 57 30  
Year to date cooling degree days 1420 1013  
Growing Degree Days 23 (Base 50)    
Moisture  
Dew Point 58 °F    
Average Humidity 62    
Maximum Humidity 81    
Minimum Humidity 43    
Precipitation  
Precipitation 0.00 in 0.12 in 1.19 in (1979)
Month to date precipitation 0.00 0.50  
Year to date precipitation 39.68 31.57  
Snow  
Snow 0.00 in 0.00 in 0.00 in (2002)
Month to date snowfall 0.0 0.0  
Since 1 July snowfall 0.0 0.0  
Snow Depth 0.00 in    
Sea Level Pressure  
Sea Level Pressure 30.04 in    
Wind  
Wind Speed 4 mph (WNW)    
Max Wind Speed 13 mph    
Max Gust Speed 16 mph    
Visibility 10 miles    
Events      
T = Trace of Precipitation, MM = Missing Value Source: NWS Daily Summary

Daily Weather History Graph

Daily Weather History Graph

Search for Another Location

Airport or City:

Trip Planner

Search our weather history database for the weather conditions in past years. The results will help you decide how hot, cold, wet, or windy it might be!

Date:

Astronomy

Sep. 04, 2013 Rise Set
Actual Time 6:34 AM EDT 7:26 PM EDT
Civil Twilight 6:07 AM EDT 7:53 PM EDT
Nautical Twilight 5:35 AM EDT 8:25 PM EDT
Astronomical Twilight 5:02 AM EDT 8:58 PM EDT
Moon 5:44 AM EDT (9/4) 6:45 PM EDT (9/4)
Length of Visible Light 13h 46m
Length of Day
12h 52m
Waning Crescent, 1% of the Moon is Illuminated
Sep 4
Waning Crescent
Sep 5
New
Sep 12
First Quarter
Sep 19
Full
Sep 26
Last Quarter

Hourly Weather History & Observations

Time (EDT) Temp. Heat Index Dew Point Humidity Pressure Visibility Wind Dir Wind Speed Gust Speed Precip Events Conditions
12:54 AM 70.0 °F - 57.9 °F 65% 29.95 in 10.0 mi North 6.9 mph - N/A   Clear
1:54 AM 68.0 °F - 57.9 °F 70% 29.97 in 10.0 mi NNW 3.5 mph - N/A   Clear
2:54 AM 66.0 °F - 57.9 °F 75% 29.98 in 10.0 mi NW 4.6 mph - N/A   Partly Cloudy
3:54 AM 64.9 °F - 57.0 °F 75% 29.99 in 10.0 mi NW 5.8 mph - N/A   Clear
4:54 AM 66.0 °F - 55.9 °F 70% 30.00 in 10.0 mi WNW 3.5 mph - N/A   Clear
5:54 AM 64.0 °F - 55.9 °F 75% 30.01 in 10.0 mi NW 4.6 mph - N/A   Clear
6:54 AM 64.0 °F - 55.9 °F 75% 30.04 in 10.0 mi NW 4.6 mph - N/A   Clear
7:54 AM 68.0 °F - 57.0 °F 68% 30.06 in 10.0 mi NW 8.1 mph - N/A   Clear
8:54 AM 71.1 °F - 57.9 °F 63% 30.07 in 10.0 mi NNW 8.1 mph - N/A   Clear
9:54 AM 73.0 °F - 59.0 °F 61% 30.07 in 10.0 mi North 8.1 mph 16.1 mph N/A   Clear
10:54 AM 75.9 °F - 59.0 °F 56% 30.07 in 10.0 mi NNE 4.6 mph - N/A   Clear
11:54 AM 77.0 °F - 57.9 °F 52% 30.07 in 10.0 mi Variable 3.5 mph - N/A   Scattered Clouds
12:54 PM 79.0 °F - 57.0 °F 47% 30.07 in 10.0 mi WNW 4.6 mph - N/A   Scattered Clouds
1:54 PM 82.0 °F 82.0 °F 57.9 °F 44% 30.06 in 10.0 mi West 4.6 mph - N/A   Partly Cloudy
2:54 PM 81.0 °F 81.1 °F 57.9 °F 45% 30.05 in 10.0 mi Variable 3.5 mph - N/A   Mostly Cloudy
3:54 PM 81.0 °F 81.6 °F 60.1 °F 49% 30.04 in 10.0 mi SW 8.1 mph - N/A   Scattered Clouds
4:54 PM 80.1 °F 80.9 °F 60.1 °F 50% 30.04 in 10.0 mi SW 9.2 mph - N/A   Clear
5:54 PM 79.0 °F - 57.0 °F 47% 30.04 in 10.0 mi West 9.2 mph - N/A   Clear
6:54 PM 75.9 °F - 57.9 °F 54% 30.04 in 10.0 mi WSW 4.6 mph - N/A   Clear
7:54 PM 70.0 °F - 61.0 °F 73% 30.04 in 10.0 mi WSW 3.5 mph - N/A   Clear
8:54 PM 66.0 °F - 60.1 °F 81% 30.05 in 10.0 mi Calm Calm - N/A   Clear
9:54 PM 66.9 °F - 60.1 °F 79% 30.05 in 10.0 mi Calm Calm - N/A   Clear
10:54 PM 66.0 °F - 60.1 °F 81% 30.06 in 10.0 mi Calm Calm - N/A   Clear
11:54 PM 66.0 °F - 60.1 °F 81% 30.06 in 10.0 mi Calm Calm - N/A   Clear